Time,TemperatureF,DewpointF,PressureIn,WindDirection,WindDirectionDegrees,WindSpeedMPH,WindSpeedGustMPH,Humidity,HourlyPrecipIn,Conditions,Clouds,dailyrainin,SolarRadiationWatts/m^2,SoftwareType,DateUTC
2013-11-13 00:42:00,38.0,22.0,-100.00,NW,318,1.0,6.0,53,-99.99,,,0.00,0.000000,,2013-11-13 07:42:00,
2013-11-13 09:12:00,48.0,24.0,-100.00,SSE,154,4.0,7.0,38,-99.99,,,0.00,303.000000,,2013-11-13 16:12:00,
2013-11-13 10:12:00,50.0,23.0,-100.00,SSE,164,5.0,9.0,35,-99.99,,,0.00,432.000000,,2013-11-13 17:12:00,
2013-11-13 10:52:00,50.0,23.0,-100.00,SSE,164,5.0,9.0,35,-99.99,,,0.00,432.000000,,2013-11-13 17:52:00,
2013-11-13 11:02:00,50.0,23.0,-100.00,SSE,164,5.0,9.0,35,-99.99,,,0.00,432.000000,,2013-11-13 18:02:00,
2013-11-13 11:42:00,49.0,22.0,-100.00,SSE,162,5.0,9.0,34,0.00,,,0.00,483.000000,,2013-11-13 18:42:00,
2013-11-13 11:52:00,49.0,22.0,-100.00,SSE,162,5.0,9.0,34,0.00,,,0.00,483.000000,,2013-11-13 18:52:00,
2013-11-13 12:02:00,49.0,22.0,-100.00,SSE,162,5.0,9.0,34,0.00,,,0.00,483.000000,,2013-11-13 19:02:00,
2013-11-13 12:11:00,49.0,22.0,-100.00,SSE,162,5.0,9.0,34,0.00,,,0.00,483.000000,,2013-11-13 19:11:00,
2013-11-13 12:42:00,52.0,22.0,-100.00,SW,233,3.0,9.0,31,0.00,,,0.00,496.000000,,2013-11-13 19:42:00,
2013-11-13 12:52:00,52.0,22.0,-100.00,SW,233,3.0,9.0,31,0.00,,,0.00,496.000000,,2013-11-13 19:52:00,
2013-11-13 13:02:00,52.0,22.0,-100.00,SW,233,3.0,9.0,31,0.00,,,0.00,496.000000,,2013-11-13 20:02:00,
2013-11-13 13:11:00,52.0,22.0,-100.00,SW,233,3.0,9.0,31,0.00,,,0.00,496.000000,,2013-11-13 20:11:00,
2013-11-13 13:42:00,50.0,22.0,-100.00,South,176,5.0,10.0,33,0.00,,,0.00,386.000000,,2013-11-13 20:42:00,
2013-11-13 13:52:00,50.0,22.0,-100.00,South,176,5.0,10.0,33,0.00,,,0.00,386.000000,,2013-11-13 20:52:00,
2013-11-13 14:01:00,50.0,22.0,-100.00,South,176,5.0,10.0,33,0.00,,,0.00,386.000000,,2013-11-13 21:01:00,
2013-11-13 14:11:00,50.0,22.0,-100.00,South,176,5.0,10.0,33,0.00,,,0.00,386.000000,,2013-11-13 21:11:00,
2013-11-13 14:12:00,52.0,21.0,-100.00,South,175,6.0,11.0,29,0.00,,,0.00,404.000000,,2013-11-13 21:12:00,
2013-11-13 14:43:00,52.0,21.0,-100.00,South,175,6.0,11.0,29,0.00,,,0.00,404.000000,,2013-11-13 21:43:00,
2013-11-13 14:53:00,52.0,21.0,-100.00,South,175,6.0,11.0,29,0.00,,,0.00,404.000000,,2013-11-13 21:53:00,
2013-11-13 15:03:00,52.0,21.0,-100.00,South,175,6.0,11.0,29,0.00,,,0.00,404.000000,,2013-11-13 22:03:00,
2013-11-13 15:42:00,47.0,22.0,-100.00,SSW,199,5.0,10.0,37,0.00,,,0.00,161.000000,,2013-11-13 22:42:00,
2013-11-13 15:53:00,47.0,22.0,-100.00,SSW,199,5.0,10.0,37,0.00,,,0.00,161.000000,,2013-11-13 22:53:00,
2013-11-13 16:02:00,47.0,22.0,-100.00,SSW,199,5.0,10.0,37,0.00,,,0.00,161.000000,,2013-11-13 23:02:00,
2013-11-13 16:11:00,47.0,22.0,-100.00,SSW,199,5.0,10.0,37,0.00,,,0.00,161.000000,,2013-11-13 23:11:00,
2013-11-13 16:43:00,45.0,21.0,-100.00,West,262,3.0,7.0,38,0.00,,,0.00,115.000000,,2013-11-13 23:43:00,
2013-11-13 16:53:00,45.0,21.0,-100.00,West,262,3.0,7.0,38,0.00,,,0.00,115.000000,,2013-11-13 23:53:00,
2013-11-13 17:02:00,45.0,21.0,-100.00,West,262,3.0,7.0,38,0.00,,,0.00,115.000000,,2013-11-14 00:02:00,
2013-11-13 17:11:00,45.0,21.0,-100.00,West,262,3.0,7.0,38,0.00,,,0.00,115.000000,,2013-11-14 00:11:00,
2013-11-13 17:42:00,42.0,21.0,-100.00,West,274,5.0,7.0,42,0.00,,,0.00,27.000000,,2013-11-14 00:42:00,
2013-11-13 17:52:00,42.0,21.0,-100.00,West,274,5.0,7.0,42,0.00,,,0.00,27.000000,,2013-11-14 00:52:00,
2013-11-13 18:02:00,42.0,21.0,-100.00,West,274,5.0,7.0,42,0.00,,,0.00,27.000000,,2013-11-14 01:02:00,
2013-11-13 18:11:00,42.0,21.0,-100.00,West,274,5.0,7.0,42,0.00,,,0.00,27.000000,,2013-11-14 01:11:00,
2013-11-13 18:12:00,41.0,21.0,-100.00,West,262,5.0,7.0,44,0.00,,,0.00,0.000000,,2013-11-14 01:12:00,
2013-11-13 18:42:00,41.0,21.0,-100.00,West,262,5.0,7.0,44,0.00,,,0.00,0.000000,,2013-11-14 01:42:00,
2013-11-13 18:52:00,41.0,21.0,-100.00,West,262,5.0,7.0,44,0.00,,,0.00,0.000000,,2013-11-14 01:52:00,
2013-11-13 19:01:00,41.0,21.0,-100.00,West,262,5.0,7.0,44,0.00,,,0.00,0.000000,,2013-11-14 02:01:00,
2013-11-13 19:53:00,40.0,21.0,-100.00,SSW,209,4.0,10.0,46,0.00,,,0.00,0.000000,,2013-11-14 02:53:00,
2013-11-13 20:01:00,40.0,21.0,-100.00,SSW,209,4.0,10.0,46,0.00,,,0.00,0.000000,,2013-11-14 03:01:00,
2013-11-13 20:11:00,40.0,21.0,-100.00,SSW,209,4.0,10.0,46,0.00,,,0.00,0.000000,,2013-11-14 03:11:00,
2013-11-13 20:12:00,40.0,21.0,-100.00,WNW,289,6.0,9.0,47,0.00,,,-99.99,0.000000,,2013-11-14 03:12:00,
2013-11-13 20:44:00,40.0,21.0,-100.00,WNW,289,6.0,9.0,47,0.00,,,-99.99,0.000000,,2013-11-14 03:44:00,
2013-11-13 20:54:00,40.0,21.0,-100.00,WNW,289,6.0,9.0,47,0.00,,,-99.99,0.000000,,2013-11-14 03:54:00,
2013-11-13 21:03:00,40.0,21.0,-100.00,WNW,289,6.0,9.0,47,0.00,,,-99.99,0.000000,,2013-11-14 04:03:00,
2013-11-13 21:12:00,40.0,21.0,-100.00,NW,310,3.0,6.0,47,0.00,,,0.00,0.000000,,2013-11-14 04:12:00,
2013-11-13 21:43:00,40.0,21.0,-100.00,NW,310,3.0,6.0,47,0.00,,,0.00,0.000000,,2013-11-14 04:43:00,
2013-11-13 21:54:00,40.0,21.0,-100.00,NW,310,3.0,6.0,47,0.00,,,0.00,0.000000,,2013-11-14 04:54:00,
2013-11-13 22:03:00,40.0,21.0,-100.00,NW,310,3.0,6.0,47,0.00,,,0.00,0.000000,,2013-11-14 05:03:00,
2013-11-13 22:12:00,38.0,21.0,-100.00,SSW,208,2.0,7.0,49,0.00,,,0.00,0.000000,,2013-11-14 05:12:00,
2013-11-13 22:44:00,38.0,21.0,-100.00,SSW,208,2.0,7.0,49,0.00,,,0.00,0.000000,,2013-11-14 05:44:00,
2013-11-13 22:53:00,38.0,21.0,-100.00,SSW,208,2.0,7.0,49,0.00,,,0.00,0.000000,,2013-11-14 05:53:00,
2013-11-13 23:03:00,38.0,21.0,-100.00,SSW,208,2.0,7.0,49,0.00,,,0.00,0.000000,,2013-11-14 06:03:00,
2013-11-13 23:42:00,38.0,21.0,-100.00,WSW,253,2.0,7.0,49,0.00,,,0.00,0.000000,,2013-11-14 06:42:00,